Weather History for KRBO - September, 2012

Change the Weather History Date:

Thursday, September 20, 2012

  Actual Average (KCRP) Record (KCRP)
Temperature  
Mean Temperature 80 °F 80 °F  
Max Temperature 92 °F 89 °F 98 °F (1947)
Min Temperature 67 °F 71 °F 59 °F (1981)
Degree Days  
Heating Degree Days 0 0  
Month to date heating degree days 0  
Since 1 July heating degree days 0  
Cooling Degree Days 14 15  
Month to date cooling degree days 341  
Year to date cooling degree days 2902  
Growing Degree Days 30 (Base 50)    
Moisture  
Dew Point 62 °F    
Average Humidity 58    
Maximum Humidity 87    
Minimum Humidity 28    
Precipitation  
Precipitation 0.00 in 0.16 in 3.48 in (1967)
Month to date precipitation 3.50  
Year to date precipitation 22.84  
Snow  
Snow 0.00 in - - ()
Month to date snowfall  
Since 1 July snowfall  
Since 1 September snowfall  
Snow Depth -    
Sea Level Pressure  
Sea Level Pressure 30.02 in    
Wind  
Wind Speed 4 mph (ESE)    
Max Wind Speed 17 mph    
Max Gust Speed 23 mph    
Visibility 10 miles    
Events      
T = Trace of Precipitation, MM = Missing Value Source: NWS Daily Summary

Daily Weather History Graph

Daily Weather History Graph

Search for Another Location

Airport or City:

Trip Planner

Search our weather history database for the weather conditions in past years. The results will help you decide how hot, cold, wet, or windy it might be!

Date:

Astronomy

Sep. 20, 2012 Rise Set
Actual Time 7:18 AM CDT 7:28 PM CDT
Civil Twilight 6:55 AM CDT 7:52 PM CDT
Nautical Twilight 6:27 AM CDT 8:19 PM CDT
Astronomical Twilight 6:00 AM CDT 8:46 PM CDT
Moon 12:08 PM CDT (9/20) 11:02 PM CDT (9/20)
Length of Visible Light 12h 57m
Length of Day
12h 10m
Waxing Crescent, 27% of the Moon is Illuminated
Sep 20
Waxing Crescent
Sep 22
First Quarter
Sep 29
Full
Oct 8
Last Quarter
Oct 15
New

Hourly Weather History & Observations

Time (CDT) Temp. Heat Index Dew Point Humidity Pressure Visibility Wind Dir Wind Speed Gust Speed Precip Events Conditions
12:15 AM 76.1 °F - 68.9 °F 78% 30.05 in 10.0 mi ESE 3.5 mph - N/A   Clear
12:35 AM 75.9 °F - 68.9 °F 79% 30.05 in 10.0 mi ESE 4.6 mph - N/A   Clear
12:55 AM 75.6 °F - 69.1 °F 80% 30.05 in 10.0 mi SE 3.5 mph - N/A   Clear
1:15 AM 74.7 °F - 68.9 °F 82% 30.05 in 10.0 mi ESE 3.5 mph - N/A   Clear
1:35 AM 74.8 °F - 69.1 °F 82% 30.04 in 10.0 mi ESE 4.6 mph - N/A   Clear
1:55 AM 74.1 °F - 68.2 °F 82% 30.04 in 10.0 mi East 3.5 mph - N/A   Clear
2:15 AM 73.8 °F - 68.5 °F 84% 30.04 in 10.0 mi East 3.5 mph - N/A   Clear
2:35 AM 73.4 °F - 68.4 °F 84% 30.04 in 10.0 mi Calm Calm - N/A   Clear
2:55 AM 72.9 °F - 68.4 °F 86% 30.04 in 10.0 mi ESE 4.6 mph - N/A   Clear
3:15 AM 73.4 °F - 68.9 °F 86% 30.04 in 10.0 mi ESE 3.5 mph - N/A   Clear
3:35 AM 72.5 °F - 68.4 °F 87% 30.03 in 10.0 mi Calm Calm - N/A   Clear
3:55 AM 73.4 °F - 69.1 °F 86% 30.03 in 10.0 mi Calm Calm - N/A   Clear
4:15 AM 72.3 °F - 66.9 °F 83% 30.03 in 10.0 mi Calm Calm - N/A   Clear
4:35 AM 71.2 °F - 66.2 °F 84% 30.03 in 10.0 mi Calm Calm - N/A   Clear
4:55 AM 70.2 °F - 64.4 °F 82% 30.03 in 10.0 mi Calm Calm - N/A   Clear
5:15 AM 69.3 °F - 64.2 °F 84% 30.04 in 10.0 mi Calm Calm - N/A   Clear
5:35 AM 68.9 °F - 63.0 °F 81% 30.04 in 10.0 mi Calm Calm - N/A   Clear
5:55 AM 68.9 °F - 63.0 °F 81% 30.04 in 10.0 mi Calm Calm - N/A   Clear
6:15 AM 68.5 °F - 63.0 °F 82% 30.05 in 10.0 mi Calm Calm - N/A   Clear
6:35 AM 68.2 °F - 63.0 °F 83% 30.05 in 10.0 mi North 3.5 mph - N/A   Clear
6:55 AM 67.8 °F - 62.4 °F 83% 30.05 in 10.0 mi Calm Calm - N/A   Clear
7:35 AM 67.1 °F - 62.2 °F 84% 30.06 in 10.0 mi WNW 3.5 mph - N/A   Clear
7:55 AM 68.9 °F - 64.6 °F 86% 30.06 in 10.0 mi Calm Calm - N/A   Clear
8:15 AM 71.2 °F - 66.2 °F 84% 30.06 in 10.0 mi Calm Calm - N/A   Clear
8:35 AM 74.1 °F - 68.2 °F 82% 30.06 in 10.0 mi Calm Calm - N/A   Clear
8:55 AM 76.3 °F - 68.2 °F 76% 30.06 in 10.0 mi Calm Calm - N/A   Clear
9:15 AM 79.3 °F - 68.5 °F 69% 30.07 in 10.0 mi Calm Calm - N/A   Clear
9:35 AM 81.7 °F 84.7 °F 68.4 °F 64% 30.07 in 10.0 mi ENE 3.5 mph - N/A   Clear
9:55 AM 82.8 °F 85.3 °F 67.1 °F 59% 30.07 in 10.0 mi Calm Calm - N/A   Clear
10:15 AM 83.5 °F 85.3 °F 65.5 °F 54% 30.07 in 10.0 mi SE 3.5 mph - N/A   Clear
10:35 AM 84.4 °F 86.1 °F 64.9 °F 52% 30.07 in 10.0 mi Calm Calm - N/A   Clear
10:55 AM 84.9 °F 86.1 °F 63.9 °F 49% 30.07 in 10.0 mi Calm Calm - N/A   Clear
11:15 AM 85.8 °F 86.3 °F 62.4 °F 45% 30.06 in 10.0 mi East 5.8 mph - N/A   Clear
11:35 AM 86.9 °F 87.5 °F 62.4 °F 44% 30.06 in 10.0 mi East 8.1 mph - N/A   Clear
11:55 AM 87.1 °F 87.8 °F 62.6 °F 44% 30.05 in 10.0 mi SSE 3.5 mph - N/A   Clear
12:15 PM 88.2 °F 88.7 °F 62.6 °F 42% 30.05 in 10.0 mi East 3.5 mph - N/A   Scattered Clouds
12:35 PM 88.9 °F 89.4 °F 62.2 °F 41% 30.05 in 10.0 mi East 8.1 mph - N/A   Scattered Clouds
12:55 PM 90.1 °F 89.3 °F 59.4 °F 35% 30.04 in 10.0 mi ENE 5.8 mph - N/A   Clear
1:15 PM 90.7 °F 89.0 °F 56.3 °F 31% 30.03 in 10.0 mi ENE 10.4 mph - N/A   Clear
1:35 PM 90.5 °F 88.5 °F 55.0 °F 30% 30.02 in 10.0 mi East 9.2 mph 16.1 mph N/A   Clear
1:55 PM 91.8 °F 89.5 °F 54.7 °F 28% 30.02 in 10.0 mi NE 8.1 mph 17.3 mph N/A   Clear
2:15 PM 91.6 °F 89.6 °F 55.2 °F 29% 30.00 in 10.0 mi East 9.2 mph - N/A   Clear
2:35 PM 91.9 °F 89.8 °F 54.3 °F 28% 29.99 in 10.0 mi East 3.5 mph 16.1 mph N/A   Clear
2:55 PM 92.1 °F 90.8 °F 57.2 °F 31% 29.99 in 10.0 mi East 4.6 mph 16.1 mph N/A   Clear
3:15 PM 91.9 °F 90.3 °F 56.7 °F 30% 29.98 in 10.0 mi East 12.7 mph 16.1 mph N/A   Scattered Clouds
3:35 PM 92.3 °F 90.7 °F 56.7 °F 30% 29.98 in 10.0 mi East 12.7 mph - N/A   Clear
3:55 PM 91.6 °F 89.8 °F 56.5 °F 30% 29.97 in 10.0 mi East 10.4 mph 20.7 mph N/A   Clear
4:15 PM 91.9 °F 90.0 °F 55.6 °F 29% 29.97 in 10.0 mi East 8.1 mph 16.1 mph N/A   Clear
4:35 PM 91.2 °F 89.6 °F 56.3 °F 31% 29.96 in 10.0 mi ENE 17.3 mph 23.0 mph N/A   Clear
4:55 PM 90.9 °F 89.2 °F 56.3 °F 31% 29.96 in 10.0 mi ENE 11.5 mph 19.6 mph N/A   Clear
5:15 PM 90.1 °F 88.6 °F 56.7 °F 32% 29.97 in 10.0 mi East 11.5 mph 18.4 mph N/A   Clear
5:35 PM 89.6 °F 88.1 °F 57.2 °F 33% 29.97 in 10.0 mi East 12.7 mph 16.1 mph N/A   Clear
5:55 PM 88.7 °F 87.5 °F 57.6 °F 35% 29.97 in 10.0 mi East 13.8 mph - N/A   Clear
6:15 PM 88.0 °F 86.1 °F 54.5 °F 32% 29.97 in 10.0 mi East 13.8 mph - N/A   Clear
6:35 PM 86.7 °F - 52.9 °F 31% 29.97 in 10.0 mi East 16.1 mph - N/A   Clear
6:55 PM 85.5 °F - 50.2 °F 29% 29.97 in 10.0 mi East 15.0 mph - N/A   Clear
7:15 PM 84.0 °F - 50.5 °F 31% 29.97 in 10.0 mi ESE 13.8 mph - N/A   Clear
7:35 PM 82.6 °F - 52.7 °F 35% 29.98 in 10.0 mi ESE 9.2 mph - N/A   Clear
7:55 PM 81.1 °F 81.3 °F 57.7 °F 45% 29.98 in 10.0 mi ESE 8.1 mph - N/A   Clear
8:15 PM 79.7 °F - 59.0 °F 49% 29.98 in 10.0 mi SE 8.1 mph - N/A   Clear
8:35 PM 78.6 °F - 59.5 °F 52% 29.99 in 10.0 mi SE 6.9 mph - N/A   Clear
8:55 PM 77.7 °F - 60.3 °F 55% 29.99 in 10.0 mi ESE 4.6 mph - N/A   Clear
9:15 PM 77.0 °F - 61.0 °F 58% 30.00 in 10.0 mi SE 5.8 mph - N/A   Clear
9:35 PM 75.4 °F - 60.6 °F 60% 30.00 in 10.0 mi SE 4.6 mph - N/A   Clear
9:55 PM 74.3 °F - 60.6 °F 62% 30.01 in 10.0 mi SE 5.8 mph - N/A   Clear
10:15 PM 74.3 °F - 61.0 °F 63% 30.01 in 10.0 mi SE 8.1 mph - N/A   Clear
10:35 PM 74.3 °F - 61.2 °F 63% 30.01 in 10.0 mi SE 5.8 mph - N/A   Clear
10:55 PM 73.0 °F - 60.8 °F 65% 30.01 in 10.0 mi SE 4.6 mph - N/A   Clear
11:15 PM 72.1 °F - 60.6 °F 67% 30.01 in 10.0 mi SE 4.6 mph - N/A   Clear
11:35 PM 71.1 °F - 60.3 °F 69% 30.01 in 10.0 mi ESE 4.6 mph - N/A   Clear
11:55 PM 70.7 °F - 60.6 °F 70% 30.01 in 10.0 mi ESE 4.6 mph - N/A   Clear